Weather History for KAFF - May, 2013

Change the Weather History Date:

Sunday, May 26, 2013

  Actual Average Record
Temperature  
Mean Temperature 68 °F -  
Max Temperature 83 °F 69 °F 85 °F (2012)
Min Temperature 52 °F 42 °F 39 °F (1997)
Cooling Degree Days 2    
Growing Degree Days 18 (Base 50)    
Moisture  
Dew Point 21 °F    
Average Humidity 20    
Maximum Humidity 46    
Minimum Humidity 6    
Precipitation  
Precipitation 0.00 in - - ()
Sea Level Pressure  
Sea Level Pressure 29.72 in    
Wind  
Wind Speed 10 mph (North)    
Max Wind Speed 17 mph    
Max Gust Speed 22 mph    
Visibility 10 miles    
Events      
Averages and records for this station are not official NWS values.
T = Trace of Precipitation, MM = Missing Value Source: NWS Daily Summary

Daily Weather History Graph

Daily Weather History Graph

Search for Another Location

Airport or City:

Trip Planner

Search our weather history database for the weather conditions in past years. The results will help you decide how hot, cold, wet, or windy it might be!

Date:

Astronomy

May. 26, 2013 Rise Set
Actual Time 5:38 AM MDT 8:14 PM MDT
Civil Twilight 5:07 AM MDT 8:45 PM MDT
Nautical Twilight 4:28 AM MDT 9:24 PM MDT
Astronomical Twilight 3:45 AM MDT 10:08 PM MDT
Moon 10:04 PM MDT (5/26) 7:10 AM MDT (5/26)
Length of Visible Light 15h 38m
Length of Day
14h 36m
Waning Gibbous, 96% of the Moon is Illuminated
May 26
Waning Gibbous
May 31
Last Quarter
Jun 8
New
Jun 16
First Quarter
Jun 23
Full

Hourly Weather History & Observations

Time (MDT) Temp. Dew Point Humidity Pressure Visibility Wind Dir Wind Speed Gust Speed Precip Events Conditions
12:58 AM 61.2 °F 15.4 °F 17% 29.72 in 10.0 mi North 11.5 mph - N/A   Clear
1:58 AM 61.7 °F 23.0 °F 23% 29.72 in 10.0 mi Variable 6.9 mph - N/A   Clear
2:58 AM 56.8 °F 26.6 °F 31% 29.73 in 10.0 mi NNW 10.4 mph - N/A   Clear
3:58 AM 56.5 °F 23.4 °F 28% 29.74 in 10.0 mi NW 6.9 mph - N/A   Partly Cloudy
4:58 AM 57.7 °F 23.4 °F 27% 29.75 in 10.0 mi NNE 5.8 mph - N/A   Clear
5:58 AM 52.2 °F 28.2 °F 40% 29.77 in 10.0 mi North 9.2 mph - N/A   Clear
6:58 AM 54.3 °F 31.5 °F 42% 29.79 in 10.0 mi North 6.9 mph - N/A   Clear
7:58 AM 63.9 °F 25.9 °F 24% 29.78 in 10.0 mi NE 12.7 mph - N/A   Clear
8:58 AM 72.0 °F 19.2 °F 14% 29.78 in 10.0 mi Variable 1.2 mph - N/A   Clear
9:58 AM 76.8 °F 13.8 °F 9% 29.77 in 10.0 mi NNW 8.1 mph - N/A   Clear
10:58 AM 77.2 °F 13.5 °F 9% 29.76 in 10.0 mi Variable 1.2 mph - N/A   Clear
11:58 AM 79.2 °F 10.9 °F 7% 29.73 in 10.0 mi Variable 2.3 mph - N/A   Clear
12:58 PM 80.6 °F 12.0 °F 7% 29.70 in 10.0 mi North 9.2 mph - N/A   Partly Cloudy
1:58 PM 83.1 °F 12.0 °F 7% 29.69 in 10.0 mi South 15.0 mph - N/A   Partly Cloudy
2:58 PM 81.7 °F 12.4 °F 7% 29.68 in 10.0 mi SE 12.7 mph 20.7 mph N/A   Mostly Cloudy
3:58 PM 79.9 °F 8.1 °F 6% 29.65 in 10.0 mi ESE 12.7 mph 21.9 mph N/A   Scattered Clouds
4:58 PM 79.0 °F 10.2 °F 7% 29.65 in 10.0 mi ESE 12.7 mph - N/A   Partly Cloudy
5:58 PM 79.0 °F 10.2 °F 7% 29.65 in 10.0 mi SE 17.3 mph - N/A   Clear
6:58 PM 77.2 °F 6.1 °F 6% 29.65 in 10.0 mi SE 13.8 mph - N/A   Clear
7:58 PM 71.6 °F 35.4 °F 27% 29.68 in 10.0 mi NW 16.1 mph - N/A   Clear
8:58 PM 67.8 °F 32.2 °F 27% 29.70 in 10.0 mi NW 11.5 mph - N/A   Clear
9:58 PM 64.9 °F 30.9 °F 28% 29.70 in 10.0 mi North 11.5 mph - N/A   Clear
10:58 PM 66.0 °F 40.3 °F 39% 29.70 in 10.0 mi NNW 11.5 mph - N/A   Scattered Clouds
11:58 PM 63.1 °F 41.7 °F 46% 29.70 in 10.0 mi North 10.4 mph - N/A   Clear